| time (UTC) | temp F | wind direction | speed MPH | gust MPH | rain 1hr in | rain 24hr in | rain mn in | humidity % | barometer mb |
| 20260504211758 | 72 | 201 | 5.0 | 10.0 | 0.00 | 0.00 | 0.00 | 49 | 1005.8 |
| 20260504211254 | 70 | 217 | 4.0 | 11.0 | 0.00 | 0.00 | 0.00 | 51 | 1006.0 |
| 20260504210752 | 71 | 234 | 4.0 | 15.0 | 0.00 | 0.00 | 0.00 | 51 | 1005.8 |
| 20260504210249 | 70 | 218 | 6.0 | 12.0 | 0.00 | 0.00 | 0.00 | 49 | 1005.8 |
| 20260504205746 | 72 | 229 | 6.0 | 9.0 | 0.00 | 0.00 | 0.00 | 49 | 1005.7 |
| 20260504205243 | 72 | 225 | 4.0 | 7.0 | 0.00 | 0.00 | 0.00 | 49 | 1005.8 |
| 20260504204741 | 72 | 158 | 4.0 | 17.0 | 0.00 | 0.00 | 0.00 | 48 | 1005.6 |
| 20260504204239 | 73 | 229 | 8.0 | 13.0 | 0.00 | 0.00 | 0.00 | 46 | 1005.6 |
| 20260504203739 | 72 | 118 | 1.0 | 8.0 | 0.00 | 0.00 | 0.00 | 50 | 1005.8 |
| 20260504203235 | 69 | 263 | 1.0 | 12.0 | 0.00 | 0.00 | 0.00 | 51 | 1005.4 |
| 20260504202735 | 71 | 183 | 1.0 | 8.0 | 0.00 | 0.00 | 0.00 | 50 | 1005.8 |
| 20260504202233 | 70 | 221 | 3.0 | 9.0 | 0.00 | 0.00 | 0.00 | 50 | 1005.8 |
| 20260504201730 | 72 | 245 | 4.0 | 9.0 | 0.00 | 0.00 | 0.00 | 50 | 1005.8 |
| 20260504201227 | 71 | 202 | 1.0 | 9.0 | 0.00 | 0.00 | 0.00 | 49 | 1005.9 |
| 20260504200725 | 71 | 209 | 3.0 | 10.0 | 0.00 | 0.00 | 0.00 | 51 | 1005.9 |
| 20260504200220 | 71 | 113 | 2.0 | 6.0 | 0.00 | 0.00 | 0.00 | 51 | 1006.1 |
| 20260504195717 | 72 | 267 | 4.0 | 13.0 | 0.00 | 0.00 | 0.00 | 51 | 1006.0 |
| 20260504195213 | 73 | 173 | 2.0 | 19.0 | 0.00 | 0.00 | 0.00 | 47 | 1006.1 |
| 20260504194710 | 73 | 213 | 7.0 | 15.0 | 0.00 | 0.00 | 0.00 | 47 | 1006.1 |
| 20260504194206 | 72 | 239 | 3.0 | 5.0 | 0.00 | 0.00 | 0.00 | 50 | 1005.9 |
| 20260504193703 | 73 | 173 | 2.0 | 9.0 | 0.00 | 0.00 | 0.00 | 47 | 1006.2 |
| 20260504193201 | 71 | 271 | 3.0 | 10.0 | 0.00 | 0.00 | 0.00 | 50 | 1006.2 |
| 20260504192659 | 73 | 264 | 3.0 | 14.0 | 0.00 | 0.00 | 0.00 | 52 | 1006.1 |
| 20260504192156 | 73 | 231 | 4.0 | 10.0 | 0.00 | 0.00 | 0.00 | 49 | 1006.2 |
| 20260504191655 | 71 | 224 | 4.0 | 13.0 | 0.00 | 0.00 | 0.00 | 49 | 1006.2 |
| 20260504191150 | 69 | 217 | 2.0 | 5.0 | 0.00 | 0.00 | 0.00 | 51 | 1006.5 |
| 20260504190646 | 69 | 284 | 1.0 | 11.0 | 0.00 | 0.00 | 0.00 | 53 | 1006.5 |
| 20260504190138 | 72 | 260 | 5.0 | 8.0 | 0.00 | 0.00 | 0.00 | 50 | 1006.5 |
| 20260504185634 | 72 | 193 | 2.0 | 8.0 | 0.00 | 0.00 | 0.00 | 47 | 1006.6 |
| 20260504185131 | 70 | 239 | 6.0 | 8.0 | 0.00 | 0.00 | 0.00 | 51 | 1006.6 |
| 20260504184626 | 70 | 203 | 3.0 | 11.0 | 0.00 | 0.00 | 0.00 | 49 | 1006.6 |
| 20260504184122 | 71 | 211 | 3.0 | 10.0 | 0.00 | 0.00 | 0.00 | 49 | 1006.9 |
| 20260504183619 | 71 | 223 | 4.0 | 11.0 | 0.00 | 0.00 | 0.00 | 48 | 1006.9 |
| 20260504183117 | 70 | 225 | 0.0 | 19.0 | 0.00 | 0.00 | 0.00 | 50 | 1006.9 |
| 20260504182614 | 71 | 224 | 4.0 | 6.0 | 0.00 | 0.00 | 0.00 | 51 | 1006.8 |
| 20260504182112 | 71 | 215 | 5.0 | 8.0 | 0.00 | 0.00 | 0.00 | 49 | 1006.8 |
| 20260504181609 | 70 | 116 | 3.0 | 9.0 | 0.00 | 0.00 | 0.00 | 51 | 1007.0 |
| 20260504181106 | 69 | 186 | 8.0 | 15.0 | 0.00 | 0.00 | 0.00 | 51 | 1007.1 |
| 20260504180605 | 69 | 219 | 10.0 | 12.0 | 0.00 | 0.00 | 0.00 | 50 | 1007.1 |
| 20260504180104 | 69 | 168 | 2.0 | 6.0 | 0.00 | 0.00 | 0.00 | 52 | 1007.0 |
| 20260504175600 | 69 | 149 | 4.0 | 12.0 | 0.00 | 0.00 | 0.00 | 51 | 1007.3 |
| 20260504175057 | 69 | 282 | 3.0 | 10.0 | 0.00 | 0.00 | 0.00 | 51 | 1007.2 |
| 20260504174555 | 70 | 168 | 5.0 | 9.0 | 0.00 | 0.00 | 0.00 | 49 | 1007.2 |
| 20260504174051 | 69 | 217 | 6.0 | 6.0 | 0.00 | 0.00 | 0.00 | 52 | 1007.1 |
| 20260504173548 | 69 | 221 | 3.0 | 8.0 | 0.00 | 0.00 | 0.00 | 53 | 1007.2 |
| 20260504173046 | 69 | 236 | 3.0 | 9.0 | 0.00 | 0.00 | 0.00 | 50 | 1007.3 |
| 20260504172542 | 68 | 238 | 2.0 | 11.0 | 0.00 | 0.00 | 0.00 | 52 | 1007.5 |
| 20260504172039 | 68 | 235 | 3.0 | 8.0 | 0.00 | 0.00 | 0.00 | 49 | 1007.5 |
| 20260504171536 | 67 | 297 | 0.0 | 13.0 | 0.00 | 0.00 | 0.00 | 51 | 1007.5 |
| 20260504171033 | 68 | 269 | 2.0 | 7.0 | 0.00 | 0.00 | 0.00 | 52 | 1007.5 |
| 20260504170528 | 68 | 290 | 2.0 | 11.0 | 0.00 | 0.00 | 0.00 | 53 | 1007.9 |
| 20260504150912 | 62 | 195 | 2.0 | 11.0 | 0.00 | 0.00 | 0.00 | 52 | 1009.2 |
| 20260504150409 | 62 | 236 | 4.0 | 12.0 | 0.00 | 0.00 | 0.00 | 51 | 1009.1 |
| 20260504140835 | 59 | 219 | 4.0 | 5.0 | 0.00 | 0.00 | 0.00 | 54 | 1008.9 |
| 20260504140331 | 59 | 230 | 7.0 | 11.0 | 0.00 | 0.00 | 0.00 | 54 | 1009.1 |
| 20260504130800 | 57 | 205 | 2.0 | 7.0 | 0.00 | 0.00 | 0.00 | 56 | 1009.5 |
| 20260504130256 | 56 | 155 | 0.0 | 15.0 | 0.00 | 0.00 | 0.00 | 56 | 1009.6 |
| 20260504120220 | 53 | 129 | 3.0 | 9.0 | 0.00 | 0.00 | 0.00 | 62 | 1009.2 |
| 20260504110647 | 50 | 196 | 3.0 | 6.0 | 0.00 | 0.00 | 0.00 | 64 | 1009.2 |
| 20260504110143 | 50 | 149 | 2.0 | 5.0 | 0.00 | 0.00 | 0.00 | 64 | 1009.3 |
| 20260504100609 | 50 | 205 | 3.0 | 12.0 | 0.00 | 0.00 | 0.00 | 61 | 1009.5 |
| 20260504100108 | 49 | 141 | 2.0 | 3.0 | 0.00 | 0.00 | 0.00 | 63 | 1009.5 |
| 20260504082003 | 48 | 212 | 1.0 | 4.0 | 0.00 | 0.00 | 0.00 | 64 | 1010.4 |
| 20260504081501 | 48 | 131 | 0.0 | 4.0 | 0.00 | 0.00 | 0.00 | 64 | 1010.5 |
| 20260504080955 | 48 | 131 | 1.0 | 4.0 | 0.00 | 0.00 | 0.00 | 64 | 1010.3 |
| 20260504080452 | 48 | 188 | 1.0 | 3.0 | 0.00 | 0.00 | 0.00 | 64 | 1010.4 |
| 20260504050259 | 48 | 159 | 1.0 | 2.0 | 0.00 | 0.00 | 0.00 | 59 | 1012.1 |
| 20260504045756 | 48 | 114 | 0.0 | 2.0 | 0.00 | 0.00 | 0.00 | 60 | 1012.1 |
| 20260504045251 | 48 | 147 | 0.0 | 2.0 | 0.00 | 0.00 | 0.00 | 59 | 1012.1 |
| 20260504044749 | 48 | 177 | 0.0 | 2.0 | 0.00 | 0.00 | 0.00 | 60 | 1012.1 |
| 20260504044246 | 47 | 117 | 0.0 | 2.0 | 0.00 | 0.00 | 0.00 | 61 | 1012.0 |
| 20260504043743 | 47 | 128 | 0.0 | 2.0 | 0.00 | 0.00 | 0.00 | 61 | 1012.1 |
| 20260504043239 | 47 | 139 | 1.0 | 3.0 | 0.00 | 0.00 | 0.00 | 61 | 1012.1 |
| 20260504042732 | 47 | 244 | 0.0 | 2.0 | 0.00 | 0.00 | 0.00 | 61 | 1012.1 |
| 20260504042228 | 48 | 164 | 0.0 | 3.0 | 0.00 | 0.00 | 0.00 | 61 | 1012.1 |
| 20260504041724 | 48 | 285 | 3.0 | 6.0 | 0.00 | 0.00 | 0.00 | 59 | 1012.3 |
| 20260504041220 | 48 | 213 | 4.0 | 5.0 | 0.00 | 0.00 | 0.00 | 59 | 1012.4 |
| 20260504040717 | 48 | 165 | 2.0 | 4.0 | 0.00 | 0.00 | 0.00 | 59 | 1012.2 |
| 20260504040214 | 49 | 228 | 2.0 | 5.0 | 0.00 | 0.00 | 0.00 | 57 | 1012.3 |
| 20260504035710 | 48 | 233 | 3.0 | 5.0 | 0.00 | 0.00 | 0.00 | 57 | 1012.2 |
| 20260504035208 | 48 | 238 | 2.0 | 6.0 | 0.00 | 0.00 | 0.00 | 58 | 1012.0 |
| 20260504034705 | 48 | 126 | 2.0 | 4.0 | 0.00 | 0.00 | 0.00 | 58 | 1012.0 |
| 20260504034202 | 48 | 98 | 0.0 | 2.0 | 0.00 | 0.00 | 0.00 | 59 | 1012.2 |
| 20260504033700 | 48 | 138 | 1.0 | 3.0 | 0.00 | 0.00 | 0.00 | 58 | 1012.1 |
| 20260504033157 | 48 | 186 | 1.0 | 2.0 | 0.00 | 0.00 | 0.00 | 58 | 1012.2 |
| 20260504032653 | 49 | 146 | 0.0 | 3.0 | 0.00 | 0.00 | 0.00 | 58 | 1012.2 |
| 20260504032151 | 48 | 93 | 1.0 | 2.0 | 0.00 | 0.00 | 0.00 | 57 | 1012.0 |
| 20260504031648 | 48 | 139 | 2.0 | 2.0 | 0.00 | 0.00 | 0.00 | 57 | 1012.1 |
| 20260504031144 | 49 | 101 | 1.0 | 2.0 | 0.00 | 0.00 | 0.00 | 58 | 1012.3 |
| 20260504030641 | 49 | 119 | 0.0 | 3.0 | 0.00 | 0.00 | 0.00 | 57 | 1012.2 |
| 20260504030138 | 49 | 148 | 1.0 | 3.0 | 0.00 | 0.00 | 0.00 | 56 | 1012.2 |
| 20260504025634 | 49 | 198 | 2.0 | 3.0 | 0.00 | 0.00 | 0.00 | 56 | 1012.3 |
| 20260504025131 | 49 | 180 | 3.0 | 6.0 | 0.00 | 0.00 | 0.00 | 55 | 1012.3 |
| 20260504024628 | 49 | 142 | 0.0 | 2.0 | 0.00 | 0.00 | 0.00 | 56 | 1012.3 |
| 20260504024125 | 49 | 145 | 0.0 | 2.0 | 0.00 | 0.00 | 0.00 | 55 | 1012.2 |
| 20260504023622 | 49 | 129 | 0.0 | 2.0 | 0.00 | 0.00 | 0.00 | 56 | 1012.4 |
| 20260504023118 | 50 | 113 | 1.0 | 2.0 | 0.00 | 0.00 | 0.00 | 55 | 1012.3 |
| 20260504022614 | 50 | 160 | 1.0 | 2.0 | 0.00 | 0.00 | 0.00 | 55 | 1012.4 |
| 20260504022110 | 50 | 177 | 2.0 | 3.0 | 0.00 | 0.00 | 0.00 | 55 | 1012.4 |
| 20260504021608 | 50 | 160 | 1.0 | 3.0 | 0.00 | 0.00 | 0.00 | 55 | 1012.4 |
| 20260504021105 | 50 | 206 | 1.0 | 3.0 | 0.00 | 0.00 | 0.00 | 54 | 1012.4 |
| 20260504020602 | 50 | 124 | 1.0 | 2.0 | 0.00 | 0.00 | 0.00 | 53 | 1012.3 |
| 20260504020058 | 50 | 153 | 0.0 | 2.0 | 0.00 | 0.00 | 0.00 | 53 | 1012.5 |
| 20260504015554 | 51 | 86 | 0.0 | 2.0 | 0.00 | 0.00 | 0.00 | 52 | 1012.5 |
| 20260504015050 | 51 | 147 | 0.0 | 3.0 | 0.00 | 0.00 | 0.00 | 51 | 1012.3 |
| 20260504014547 | 51 | 177 | 0.0 | 3.0 | 0.00 | 0.00 | 0.00 | 51 | 1012.5 |
| 20260504014044 | 51 | 198 | 2.0 | 3.0 | 0.00 | 0.00 | 0.00 | 52 | 1012.3 |
| 20260504013541 | 51 | 123 | 1.0 | 3.0 | 0.00 | 0.00 | 0.00 | 51 | 1012.4 |
| 20260504013038 | 51 | 165 | 0.0 | 3.0 | 0.00 | 0.00 | 0.00 | 51 | 1012.1 |
| 20260504012536 | 51 | 123 | 1.0 | 2.0 | 0.00 | 0.00 | 0.00 | 50 | 1012.3 |
| 20260504012033 | 52 | 89 | 0.0 | 3.0 | 0.00 | 0.00 | 0.00 | 51 | 1012.3 |
| 20260504011529 | 52 | 194 | 1.0 | 3.0 | 0.00 | 0.00 | 0.00 | 50 | 1012.3 |
| 20260504011020 | 52 | 211 | 1.0 | 3.0 | 0.00 | 0.00 | 0.00 | 51 | 1012.3 |
| 20260504010516 | 52 | 131 | 1.0 | 4.0 | 0.00 | 0.00 | 0.00 | 50 | 1012.3 |
| 20260504010012 | 52 | 158 | 1.0 | 4.0 | 0.00 | 0.00 | 0.00 | 49 | 1012.2 |
| 20260504005509 | 52 | 253 | 2.0 | 3.0 | 0.00 | 0.00 | 0.00 | 50 | 1012.3 |
| 20260504005007 | 52 | 255 | 2.0 | 2.0 | 0.00 | 0.00 | 0.00 | 50 | 1012.3 |
| 20260504004504 | 53 | 199 | 2.0 | 3.0 | 0.00 | 0.00 | 0.00 | 49 | 1012.2 |
| 20260504004001 | 53 | 188 | 1.0 | 3.0 | 0.00 | 0.00 | 0.00 | 49 | 1012.1 |
| 20260504003456 | 53 | 260 | 0.0 | 4.0 | 0.00 | 0.00 | 0.00 | 48 | 1012.3 |
| 20260504002954 | 53 | 89 | 0.0 | 7.0 | 0.00 | 0.00 | 0.00 | 48 | 1012.0 |
| 20260504002451 | 53 | 177 | 3.0 | 5.0 | 0.00 | 0.00 | 0.00 | 48 | 1012.2 |
| 20260504001948 | 53 | 185 | 3.0 | 6.0 | 0.00 | 0.00 | 0.00 | 48 | 1012.2 |
| 20260504001445 | 54 | 200 | 2.0 | 3.0 | 0.00 | 0.00 | 0.00 | 47 | 1012.2 |
| 20260504000942 | 54 | 200 | 1.0 | 5.0 | 0.00 | 0.00 | 0.00 | 47 | 1012.2 |
| 20260504000439 | 54 | 121 | 2.0 | 7.0 | 0.00 | 0.00 | 0.00 | 46 | 1012.3 |
| 20260503235937 | 55 | 202 | 4.0 | 7.0 | 0.00 | 0.00 | 0.00 | 46 | 1012.2 |
| 20260503235434 | 55 | 273 | 4.0 | 9.0 | 0.00 | 0.00 | 0.00 | 45 | 1012.1 |
| 20260503234931 | 55 | 236 | 4.0 | 7.0 | 0.00 | 0.00 | 0.00 | 45 | 1012.2 |
| 20260503234429 | 55 | 35 | 0.0 | 7.0 | 0.00 | 0.00 | 0.00 | 46 | 1012.3 |
| 20260503233927 | 55 | 102 | 3.0 | 5.0 | 0.00 | 0.00 | 0.00 | 45 | 1012.2 |
| 20260503233423 | 55 | 248 | 3.0 | 8.0 | 0.00 | 0.00 | 0.00 | 45 | 1012.1 |
| 20260503232920 | 55 | 112 | 1.0 | 9.0 | 0.00 | 0.00 | 0.00 | 45 | 1012.2 |
| 20260503232417 | 55 | 145 | 1.0 | 8.0 | 0.00 | 0.00 | 0.00 | 45 | 1012.3 |
| 20260503231915 | 56 | 265 | 2.0 | 12.0 | 0.00 | 0.00 | 0.00 | 44 | 1012.2 |
| 20260503231412 | 55 | 291 | 2.0 | 6.0 | 0.00 | 0.00 | 0.00 | 46 | 1012.4 |
| 20260503230908 | 56 | 352 | 2.0 | 5.0 | 0.00 | 0.00 | 0.00 | 45 | 1012.4 |
| 20260503230404 | 56 | 209 | 2.0 | 8.0 | 0.00 | 0.00 | 0.00 | 44 | 1012.3 |
| 20260503225902 | 56 | 183 | 2.0 | 8.0 | 0.00 | 0.00 | 0.00 | 45 | 1012.3 |
| 20260503225358 | 57 | 97 | 3.0 | 5.0 | 0.00 | 0.00 | 0.00 | 44 | 1012.3 |
| 20260503224854 | 57 | 180 | 3.0 | 7.0 | 0.00 | 0.00 | 0.00 | 45 | 1012.4 |
| 20260503224351 | 57 | 214 | 2.0 | 10.0 | 0.00 | 0.00 | 0.00 | 45 | 1012.2 |
| 20260503223849 | 57 | 228 | 3.0 | 9.0 | 0.00 | 0.00 | 0.00 | 43 | 1012.4 |
| 20260503223347 | 57 | 147 | 3.0 | 12.0 | 0.00 | 0.00 | 0.00 | 42 | 1012.5 |
| 20260503222842 | 57 | 129 | 4.0 | 9.0 | 0.00 | 0.00 | 0.00 | 42 | 1012.5 |
| 20260503222341 | 58 | 293 | 2.0 | 7.0 | 0.00 | 0.00 | 0.00 | 45 | 1012.3 |
| 20260503221838 | 57 | 268 | 8.0 | 12.0 | 0.00 | 0.00 | 0.00 | 40 | 1012.4 |
| 20260503221337 | 57 | 84 | 2.0 | 12.0 | 0.00 | 0.00 | 0.00 | 43 | 1012.3 |
| 20260503220833 | 57 | 172 | 2.0 | 13.0 | 0.00 | 0.00 | 0.00 | 43 | 1012.3 |
| 20260503220330 | 57 | 225 | 5.0 | 13.0 | 0.00 | 0.00 | 0.00 | 42 | 1012.4 |
| 20260503215827 | 58 | 212 | 2.0 | 11.0 | 0.00 | 0.00 | 0.00 | 40 | 1012.2 |
| 20260503215324 | 59 | 175 | 4.0 | 14.0 | 0.00 | 0.00 | 0.00 | 38 | 1012.3 |
| 20260503214822 | 59 | 198 | 6.0 | 9.0 | 0.00 | 0.00 | 0.00 | 38 | 1012.4 |
| 20260503214318 | 57 | 177 | 2.0 | 7.0 | 0.00 | 0.00 | 0.00 | 43 | 1012.5 |
| 20260503213815 | 57 | 155 | 5.0 | 12.0 | 0.00 | 0.00 | 0.00 | 40 | 1012.3 |
| 20260503213313 | 59 | 283 | 4.0 | 9.0 | 0.00 | 0.00 | 0.00 | 38 | 1012.3 |
| 20260503212809 | 60 | 173 | 2.0 | 14.0 | 0.00 | 0.00 | 0.00 | 37 | 1012.1 |
| 20260503212308 | 61 | 183 | 3.0 | 7.0 | 0.00 | 0.00 | 0.00 | 40 | 1012.2 |